Date String (YYYY-MM-DD hh:mm:ss) UTC,Instrument flags,Ambient pressure (hPa),Sample flow (lpm),Bypass flow (lpm),Sample temperature (°C),Ambient temperature (°C),ASC tube jacket temperature (°C),LED temperature (°C),Box temperature (°C),Sample RH (%),Span deviation,Mass concentration (μg/m³),Mass concentration (μg/m³),Mass concentration (μg/m³)
DateTimeUTC,F1_M11,P_M11,Q1_M11,Q2_M11,T1_M11,T2_M11,T3_M11,T4_M11,T5_M11,U1_M11,ZSPAN_M11,X0_M11,X2_M11,X1_M11
2021-11-07 11:00:00,,0824.0,5.01,0.00,29.3,28.4,00.0,38.3,31.0,06.6,0000.0,0002.85,0001.36,0001.10
2021-11-07 11:01:00,,0823.9,5.00,0.00,29.3,28.4,00.0,38.3,31.0,06.5,0000.0,0002.80,0001.35,0001.09
2021-11-07 11:02:00,,0823.9,5.01,0.00,29.3,28.4,00.0,38.3,31.0,06.6,0000.0,0002.86,0001.36,0001.09
2021-11-07 11:03:00,,0823.9,5.00,0.00,29.3,28.4,00.0,38.3,31.0,06.6,0000.0,0002.95,0001.36,0001.09
2021-11-07 11:04:00,,0823.8,5.00,0.00,29.3,28.4,00.0,38.3,31.0,06.7,0000.0,0002.22,0001.38,0001.08
2021-11-07 11:05:00,,0823.9,5.01,0.00,29.3,28.4,00.0,38.3,31.0,06.6,0000.0,0002.20,0001.39,0001.07
2021-11-07 11:06:00,,0824.0,5.00,0.00,29.3,28.4,00.0,38.3,31.0,06.6,0000.0,0002.17,0001.37,0001.06
2021-11-07 11:07:00,,0823.8,4.99,0.00,29.3,28.5,00.0,38.3,31.0,06.6,0000.0,0002.24,0001.39,0001.05
2021-11-07 11:08:00,,0823.7,5.01,0.00,29.3,28.4,00.0,38.3,31.0,06.3,0000.0,0002.15,0001.37,0001.06
2021-11-07 11:09:00,,0823.8,5.00,0.00,29.3,28.4,00.0,38.3,30.9,06.3,0000.0,0002.20,0001.40,0001.06
2021-11-07 11:10:00,,0823.9,4.99,0.00,29.3,28.4,00.0,38.3,30.9,06.5,0000.0,0002.35,0001.45,0001.07
2021-11-07 11:11:00,,0823.8,5.00,0.00,29.3,28.4,00.0,38.3,30.9,06.7,0000.0,0002.41,0001.47,0001.08
2021-11-07 11:12:00,,0823.9,5.00,0.00,29.3,28.4,00.0,38.3,30.9,06.7,0000.0,0003.60,0001.49,0001.08
2021-11-07 11:13:00,,0823.9,5.01,0.00,29.3,28.4,00.0,38.3,30.9,06.8,0000.0,0004.73,0001.53,0001.09
2021-11-07 11:14:00,,0824.0,5.00,0.00,29.3,28.4,00.0,38.3,31.0,06.8,0000.0,0005.35,0001.55,0001.09
2021-11-07 11:15:00,,0824.0,5.00,0.00,29.3,28.4,00.0,38.3,31.0,06.9,0000.0,0005.32,0001.56,0001.10
2021-11-07 11:16:00,,0824.0,5.00,0.00,29.3,28.4,00.0,38.3,31.0,06.8,0000.0,0005.29,0001.55,0001.09
2021-11-07 11:17:00,,0824.0,5.01,0.00,29.3,28.4,00.0,38.3,30.9,06.7,0000.0,0005.34,0001.57,0001.10
2021-11-07 11:18:00,,0824.0,4.99,0.00,29.3,28.5,00.0,38.4,31.0,06.6,0000.0,0005.28,0001.54,0001.11
2021-11-07 11:19:00,,0824.0,5.00,0.00,29.3,28.5,00.0,38.4,31.0,06.6,0000.0,0005.31,0001.54,0001.10
2021-11-07 11:20:00,,0824.0,4.99,0.00,29.3,28.5,00.0,38.4,31.0,06.6,0000.0,0005.28,0001.52,0001.11
2021-11-07 11:21:00,,0823.9,5.01,0.00,29.3,28.4,00.0,38.4,31.0,06.6,0000.0,0005.75,0001.51,0001.11
2021-11-07 11:22:00,,0823.9,5.00,0.00,29.3,28.4,00.0,38.4,31.0,06.5,0000.0,0005.94,0001.51,0001.11
2021-11-07 11:23:00,,0824.0,4.99,0.00,29.3,28.4,00.0,38.4,31.0,06.6,0000.0,0004.79,0001.51,0001.11
2021-11-07 11:24:00,,0824.0,4.99,0.00,29.3,28.4,00.0,38.4,31.0,06.6,0000.0,0003.62,0001.47,0001.11
2021-11-07 11:25:00,,0824.1,4.99,0.00,29.3,28.4,00.0,38.4,31.0,06.6,0000.0,0002.99,0001.45,0001.11
2021-11-07 11:26:00,,0824.1,5.00,0.00,29.3,28.4,00.0,38.4,31.0,06.6,0000.0,0002.90,0001.42,0001.11
2021-11-07 11:27:00,,0824.1,5.01,0.00,29.3,28.4,00.0,38.4,31.0,06.7,0000.0,0003.02,0001.43,0001.11
2021-11-07 11:28:00,,0824.1,5.01,0.00,29.3,28.4,00.0,38.4,30.9,06.7,0000.0,0003.58,0001.43,0001.12
2021-11-07 11:29:00,,0824.1,5.00,0.00,29.3,28.4,00.0,38.4,31.0,06.7,0000.0,0003.72,0001.42,0001.12
2021-11-07 11:30:00,,0824.1,5.00,0.00,29.3,28.4,00.0,38.4,31.0,06.6,0000.0,0004.25,0001.43,0001.12
2021-11-07 11:31:00,,0824.1,5.01,0.00,29.3,28.4,00.0,38.4,31.0,06.5,0000.0,0004.49,0001.46,0001.12
2021-11-07 11:32:00,,0824.1,4.99,0.00,29.3,28.4,00.0,38.4,31.0,06.6,0000.0,0003.92,0001.47,0001.12
2021-11-07 11:33:00,,0824.1,5.00,0.00,29.3,28.3,00.0,38.4,30.9,06.7,0000.0,0003.68,0001.46,0001.12
2021-11-07 11:34:00,,0824.1,4.99,0.00,29.3,28.3,00.0,38.4,30.9,06.7,0000.0,0003.80,0001.48,0001.12
2021-11-07 11:35:00,,0824.1,5.01,0.00,29.3,28.3,00.0,38.4,30.9,06.7,0000.0,0003.99,0001.50,0001.11
2021-11-07 11:36:00,,0824.1,5.00,0.00,29.3,28.3,00.0,38.4,30.9,06.7,0000.0,0004.50,0001.54,0001.11
2021-11-07 11:37:00,,0824.1,4.99,0.00,29.3,28.3,00.0,38.4,30.9,06.9,0000.0,0004.83,0001.58,0001.10
2021-11-07 11:38:00,,0824.1,5.01,0.00,29.3,28.3,00.0,38.4,31.0,07.0,0000.0,0004.74,0001.57,0001.10
2021-11-07 11:39:00,,0824.0,5.01,0.00,29.3,28.3,00.0,38.4,31.0,07.0,0000.0,0004.41,0001.57,0001.10
2021-11-07 11:40:00,,0824.1,5.00,0.00,29.3,28.3,00.0,38.4,31.1,07.0,0000.0,0004.21,0001.58,0001.10
2021-11-07 11:41:00,,0824.1,4.99,0.00,29.3,28.3,00.0,38.4,31.0,07.1,0000.0,0003.83,0001.57,0001.09
2021-11-07 11:42:00,,0824.1,5.01,0.00,29.3,28.3,00.0,38.4,30.9,07.0,0000.0,0004.57,0001.52,0001.10
2021-11-07 11:43:00,,0824.1,4.99,0.00,29.3,28.3,00.0,38.4,30.9,07.0,0000.0,0004.50,0001.48,0001.10
2021-11-07 11:44:00,,0824.1,5.01,0.00,29.3,28.3,00.0,38.4,30.9,07.1,0000.0,0005.70,0001.49,0001.08
2021-11-07 11:45:00,,0824.0,4.98,0.00,29.3,28.2,00.0,38.3,31.0,07.0,0000.0,0005.96,0001.52,0001.09
2021-11-07 11:46:00,,0824.1,5.00,0.00,29.2,28.2,00.0,38.3,31.0,06.9,0000.0,0005.84,0001.52,0001.09
2021-11-07 11:47:00,,0824.1,5.01,0.00,29.2,28.2,00.0,38.3,30.9,07.0,0000.0,0005.41,0001.49,0001.09
2021-11-07 11:48:00,,0824.2,4.99,0.00,29.2,28.2,00.0,38.3,30.8,07.1,0000.0,0005.63,0001.48,0001.10
2021-11-07 11:49:00,,0824.1,5.01,0.00,29.2,28.2,00.0,38.3,30.9,07.2,0000.0,0006.06,0001.53,0001.10
2021-11-07 11:50:00,,0824.2,4.99,0.00,29.2,28.2,00.0,38.3,30.9,07.2,0000.0,0005.94,0001.53,0001.10
2021-11-07 11:51:00,,0824.1,5.00,0.00,29.2,28.2,00.0,38.3,30.9,07.2,0000.0,0005.97,0001.54,0001.09
2021-11-07 11:52:00,,0824.1,5.01,0.00,29.2,28.2,00.0,38.3,30.8,07.3,0000.0,0006.09,0001.57,0001.10
2021-11-07 11:53:00,,0824.1,4.99,0.00,29.2,28.2,00.0,38.3,30.8,07.3,0000.0,0005.04,0001.58,0001.11
2021-11-07 11:54:00,,0824.2,5.01,0.00,29.2,28.1,00.0,38.3,30.8,07.2,0000.0,0005.20,0001.66,0001.12
2021-11-07 11:55:00,,0824.2,5.00,0.00,29.2,28.1,00.0,38.3,30.8,07.2,0000.0,0004.23,0001.67,0001.13
2021-11-07 11:56:00,,0824.2,4.99,0.00,29.1,28.1,00.0,38.3,30.8,07.2,0000.0,0003.85,0001.66,0001.13
2021-11-07 11:57:00,,0824.3,5.00,0.00,29.1,28.1,00.0,38.2,30.7,07.2,0000.0,0003.97,0001.68,0001.11
2021-11-07 11:58:00,,0824.2,4.99,0.00,29.1,28.1,00.0,38.2,30.7,07.3,0000.0,0004.73,0001.68,0001.10
2021-11-07 11:59:00,,0824.3,5.01,0.00,29.1,28.1,00.0,38.2,30.7,07.3,0000.0,0004.38,0001.65,0001.09
